Regional Weather Roundup
Issued by NWS Binghamton, NY

Home | Current Version | Previous Version | Text Only | Print | Product List | Glossary On
Versions: 1 2 3 4 5 6 7 8 9 10 11 12 13 14 15 16 17 18 19 20 21 22 23 24 25 26 27 28 29 30 31 32 33 34 35 36 37 38 39 40 41 42 43 44 45 46 47 48 49 50
000
ASUS41 KBGM 061810
RWRBGM
RWRBGM
BINGHAMTON REGIONAL WEATHER ROUNDUP
NATIONAL WEATHER SERVICE BINGHAMTON NY
200 PM EDT WED MAY 06 2015

Note: "fair" indicates few or no clouds below 12,000 feet with no
significant weather and/or obstructions to visibility.

* = Station(s) that does not report precipitation, such as rain,
snow, etc, also no thunder or fog.

!NYZ009-015>018-022>025-036-037-044>046-055>057-062-061900
...CENTRAL NEW YORK...

CITY           SKY/WX    TMP DP  RH WIND       PRES   REMARKS
BINGHAMTON     CLOUDY    62  43  49 SE9       30.28F
CORTLAND       CLOUDY    68  41  37 S10       30.29F
DANSVILLE      CLOUDY    68  46  45 SE7       30.25F
ELMIRA         CLOUDY    63  52  67 SE8       30.27F
ITHACA         PTSUNNY   68  45  43 SE8       30.28F
MONTICELLO     CLOUDY    63  36  36 E7        30.31F
PENN YAN       MOSUNNY   68  46  45 VRB7      30.27F
ROME           SUNNY     72  33  24 VRB3      30.26F
SYRACUSE       MOSUNNY   74  38  27 VRB3      30.24F
$$

!PAZ038>040-043-044-047-048-072-061900
...NORTHEAST PENNSYLVANIA...

CITY           SKY/WX    TMP DP  RH WIND       PRES   REMARKS
HAZLETON       RAIN      59  46  63 E5        30.32S
SCRANTON       CLOUDY    61  48  62 NE6       30.29F
TOWANDA*       PTSUNNY   61  54  77 MISG      30.29F
$$
&&
KEY
WCI = WIND CHILL INDEX
VSB = VISIBILITY
HX  = HEAT INDEX
$$



USA.gov is the U.S. government's official web portal to all federal, state and local government web resources and services.